GFSSGP_con_sbcape_120.txt.gz
CAPE
0 0 0 0 0 0 0 0 0 0 0 0 0 0 0 0 14 1 172 397 578 883 1021 1139 1386 1430 1396 1358 1356 1371 1547 1703 1737 1718 1755 1879 1995 2061 2133 2195 2173 2187 2202 1938 1998 1897 1813 1760 1898
0 0 0 0 0 0 0 0 0 0 0 0 0 0 0 0 122 513 533 526 652 1019 1035 1110 1331 1413 1473 1406 1458 1467 1622 1679 1730 1752 1833 1977 2084 2139 2193 2149 2072 2189 2252 2018 2042 1972 1845 1841 1752
0 0 0 0 0 0 0 0 0 0 0 0 0 0 0 0 605 530 397 599 757 996 1043 1111 1301 1370 1471 1448 1508 1531 1504 1513 1598 1727 1943 2077 2163 2237 2250 2051 2001 2224 2307 2083 1669 1796 1779 1606 1455
0 0 0 0 0 0 0 0 0 0 0 0 0 0 0 2 727 581 661 701 836 1004 1084 1119 1188 1317 1444 1530 1571 1617 1431 1344 1424 1644 1941 2113 2213 2284 2153 1965 2038 2269 2355 1757 1535 1612 1537 1235 1258
0 0 0 0 0 0 0 0 0 0 0 0 0 0 0 208 681 840 819 816 845 941 926 1083 1162 1318 1430 1639 1681 1558 1342 1253 1374 1615 1814 1993 2162 2166 1869 1828 2073 2203 2265 2164 1962 1610 1233 1077 1114
0 0 0 0 0 0 0 0 0 0 0 0 0 0 0 333 754 879 894 746 781 832 812 1074 1136 1354 1453 1579 1601 1427 1257 1213 1339 1494 1688 1923 1956 1807 1570 1537 1765 1943 2030 1976 1621 1228 1115 1012 1001
0 0 0 0 0 0 0 0 0 0 0 0 0 0 0 115 693 570 402 456 602 691 769 853 1100 1272 1378 1499 1484 1326 1232 1234 1295 1405 1544 1694 1661 1493 1439 1459 1583 1759 1837 1656 1277 1024 953 968 858
0 0 0 0 0 0 0 0 0 0 0 0 0 0 0 0 516 378 421 353 502 660 768 847 882 1035 1075 1243 1279 1216 1181 1211 1274 1296 1376 1401 1426 1361 1367 1334 1402 1524 1536 1429 1158 886 848 872 561
0 0 0 0 0 0 0 0 0 0 0 0 0 0 0 7 669 560 519 422 516 611 681 815 1014 1065 1146 1103 1127 1025 1116 1164 1206 1250 1222 1086 1068 1138 1218 1149 1228 1322 1333 1254 1019 815 742 526 324
0 0 0 0 0 0 0 0 0 0 0 0 0 0 0 996 766 589 520 473 533 618 609 813 950 911 957 992 1115 1084 1092 1175 1118 1178 1007 780 657 746 921 1019 1073 1116 1117 1051 859 714 441 37 16
0 0 0 0 0 0 0 0 0 0 0 0 0 0 57 732 1046 651 459 297 353 526 605 782 761 674 738 945 907 982 959 913 615 771 778 654 419 510 591 615 740 601 815 550 442 281 69 15 1
0 0 0 0 0 0 0 0 0 0 0 0 0 0 0 166 759 1168 831 447 263 384 523 617 686 673 797 920 829 656 813 882 701 405 407 750 543 303 204 279 327 229 159 82 1 66 5 0 0
0 0 0 0 0 0 0 0 0 0 0 0 0 0 0 0 24 881 1221 1083 874 353 392 541 637 675 685 599 615 535 587 846 810 582 389 803 786 470 88 56 65 39 0 0 1 0 0 0 0
0 0 0 0 0 0 0 0 0 0 0 0 0 0 0 0 0 89 989 1069 1230 1019 422 471 622 503 475 467 432 397 424 505 508 623 611 757 671 421 148 19 6 1 1 117 28 0 0 0 0
0 0 0 0 0 0 0 0 0 0 0 0 0 0 0 0 0 0 437 907 1167 1530 1059 642 633 460 457 470 291 260 306 295 161 243 450 409 561 416 195 85 5 0 0 0 0 0 0 0 0
0 0 0 0 0 0 0 0 0 0 0 0 0 0 0 0 0 0 0 403 860 1608 1660 1314 892 625 469 485 311 207 134 187 162 123 200 323 272 227 109 155 26 0 0 0 0 0 1 1 0
0 0 0 0 0 0 0 0 0 0 0 0 0 0 0 0 0 0 0 0 529 1300 1824 1970 1453 987 658 535 483 298 161 167 125 94 146 286 330 176 230 221 61 0 0 0 0 0 0 1 1
0 0 0 0 0 0 0 0 0 0 0 0 0 0 0 0 0 0 0 0 0 693 1621 2063 2049 1696 1049 769 713 598 432 354 299 298 289 170 324 148 134 109 13 12 34 14 1 1 1 0 0
0 0 0 0 0 0 0 0 0 0 0 0 0 0 0 0 0 0 0 0 0 0 0 891 2032 2021 1599 1361 1023 990 902 793 687 524 462 313 341 199 107 93 12 35 81 43 0 1 1 1 0
0 0 0 0 0 0 0 0 0 0 0 0 0 0 0 0 0 0 0 0 0 0 0 0 425 1822 1729 1676 1446 1392 1237 1040 968 758 553 559 489 258 207 143 49 57 94 85 39 41 4 9 2
0 0 0 0 0 0 0 0 0 0 0 0 0 0 0 0 0 0 0 0 0 0 0 0 0 549 1743 1846 1591 485 330 178 475 348 503 573 610 387 321 161 99 80 134 174 98 69 46 22 0
0 0 0 0 0 0 0 1 0 0 0 0 0 0 0 0 0 0 0 0 0 0 0 0 0 0 216 1577 1516 1269 1397 1268 1111 968 751 574 550 548 379 187 83 105 118 200 128 96 81 30 0
0 0 0 0 0 0 0 0 0 0 84 6 3 6 2 0 0 0 0 0 0 0 0 0 0 0 0 0 1085 1002 1261 1052 371 470 523 642 168 225 269 130 56 82 87 116 97 98 81 57 39
0 0 0 0 0 0 0 0 0 5 34 12 15 9 7 3 0 0 0 0 0 0 0 0 0 0 0 0 0 102 896 524 414 308 472 342 102 65 72 77 55 47 58 82 110 69 39 15 17
0 0 0 0 0 0 0 0 0 15 28 31 21 17 11 6 3 2 2 2 1 0 0 0 0 0 0 0 0 0 0 67 368 377 491 250 163 117 66 58 69 59 62 80 64 35 12 2 11
0 0 0 1 4 8 2 2 27 23 28 17 19 20 13 10 9 8 5 3 2 1 1 0 0 0 0 0 0 0 0 3 29 566 247 279 203 165 128 38 95 82 51 12 1 0 0 0 0
0 0 0 0 0 0 29 10 2 4 6 5 11 17 28 12 11 10 7 5 4 2 2 2 0 0 0 0 0 0 0 1 4 54 203 130 103 6 5 65 80 34 21 0 0 0 0 0 0
0 1 0 0 3 1 10 5 3 4 9 8 5 6 17 21 10 8 8 6 5 3 2 2 2 1 1 0 1 1 3 2 2 1 401 71 51 50 40 34 59 22 7 0 0 0 0 0 0
2 0 0 4 0 6 0 2 28 11 20 3 6 10 5 12 10 15 7 5 4 2 2 2 2 3 2 1 3 2 3 3 2 4 49 117 0 0 8 29 30 23 0 1 0 0 0 0 0
9 0 0 0 0 2 0 2 31 12 13 12 8 9 4 3 1 1 1 2 2 2 1 1 2 3 4 3 4 4 4 4 4 3 3 2 0 0 0 0 24 1 1 0 0 0 0 0 1

GFSSGP_con_sbcape_126.txt.gz
CAPE
0 0 0 0 0 0 0 0 0 0 0 0 0 0 0 0 0 0 808 1126 1210 1239 1758 1612 1264 1363 1422 1464 1526 1786 2050 2174 1978 1854 1848 1902 1970 2015 2081 2091 2076 2171 2262 1855 1688 1695 1563 1646 1901
0 0 0 0 0 0 0 0 0 0 0 0 0 0 0 0 0 0 382 1237 1202 1477 1908 1693 1269 1371 1414 1436 1530 1849 2186 2219 2090 2002 1989 2061 2128 2147 2162 2074 2039 2177 2276 1978 1747 1708 1685 1648 1701
0 0 0 0 0 0 0 0 0 0 0 0 0 0 0 0 0 4 1077 1336 1259 1617 1845 1898 1371 1391 1433 1422 1548 1780 2016 2006 2025 2003 2144 2261 2302 2263 2175 1928 1952 2219 2361 2081 1877 1835 1754 1524 1429
0 0 0 0 0 0 0 0 0 0 0 0 0 0 0 0 0 508 1298 1429 1377 1657 1785 1370 1327 1439 1509 1545 1595 1743 1744 1740 1820 1964 2231 2370 2413 2361 2074 1810 1964 2291 2394 2368 2071 1911 1532 1210 1221
0 0 0 0 0 0 0 0 0 0 0 0 0 0 0 0 0 190 1682 1553 1581 1869 1993 2088 1299 1464 1607 1713 1700 1646 1531 1556 1759 1994 2125 2248 2352 2287 1921 1765 1902 2165 2182 1924 2086 1743 1281 1105 1087
0 0 0 0 0 0 0 0 0 0 0 0 0 0 0 0 0 76 1417 1957 1879 2189 2270 2245 1441 1508 1633 1693 1625 1431 1368 1459 1700 1939 2051 2198 2206 2029 1841 1746 1792 1906 1731 1562 1695 1282 1135 1021 988
0 0 0 0 0 0 0 0 0 0 0 0 0 0 0 0 0 529 1238 2138 2298 2460 2595 2600 2176 1836 1526 1640 1499 1289 1280 1398 1632 1840 1987 2087 1984 1794 1778 1739 1720 1801 1603 1563 1365 1036 925 937 816
0 0 0 0 0 0 0 0 0 0 0 0 0 0 0 0 7 224 1417 1968 2393 2604 2738 2822 2534 2294 2206 2090 1313 1150 1176 1280 1536 1703 1815 1841 1722 1676 1710 1700 1677 1751 1606 1404 1113 861 794 815 474
0 0 0 0 0 0 0 0 0 0 0 0 0 0 0 0 0 1 278 1536 2212 2466 2654 2821 2722 2548 2517 2391 1958 1093 1055 1138 1294 1538 1531 1621 1948 2166 2080 1732 1692 1649 1536 1169 937 756 708 543 250
0 0 0 0 0 0 0 0 0 0 0 0 0 0 0 0 0 0 0 39 1381 2375 2520 2631 2696 2673 2673 2330 2452 2208 1973 1703 1706 1828 2054 1995 1888 2043 1743 1510 1420 1363 1355 1046 774 662 486 537 1260
0 0 0 0 0 0 0 0 0 0 0 0 0 0 0 0 0 0 0 0 29 1865 2192 2361 2635 2653 2581 2337 2320 2192 2201 2042 1989 2012 2145 2054 2132 2144 1959 2040 1881 1902 1154 1631 1042 991 1235 1185 1282
0 0 0 0 0 0 0 0 0 0 0 0 0 0 0 0 0 0 0 0 0 401 1891 2092 2320 2568 2576 2235 2159 2303 2240 2124 2159 2102 2381 2299 2309 2267 1992 2010 1849 1794 1789 1627 1408 1341 1236 1461 1411
0 0 0 0 0 0 0 0 0 0 0 0 0 0 0 0 0 0 0 0 0 0 1198 1731 2108 2342 2348 2338 2063 2088 2135 2133 1834 1806 2062 2261 2212 2238 2192 2200 2012 1953 1836 1729 1575 1400 1527 1382 1214
0 0 0 0 0 0 0 0 0 0 0 0 0 0 0 0 0 0 0 0 0 0 332 1707 1891 2037 2046 2108 2136 2158 2091 1926 1896 1669 1750 1931 2140 2203 2197 2243 2109 2143 2082 1793 1625 1447 1397 1208 1074
0 0 0 0 0 0 0 0 0 0 0 0 0 0 0 0 0 0 0 0 0 0 0 992 1789 2036 2045 1858 2115 2111 1870 1896 1833 1853 1622 1763 2175 2243 1864 2015 2082 1874 1932 1884 1750 1493 1324 1180 1050
0 0 0 0 0 0 0 0 0 0 0 0 0 0 0 0 0 0 0 0 0 0 0 0 1369 1776 2087 1958 1887 1928 1868 1717 1830 1871 2025 1623 1854 2031 1829 1511 1763 2109 2073 1958 1629 1391 1163 1246 1111
0 0 0 0 0 0 0 0 0 0 0 0 0 0 0 0 0 0 0 0 0 0 0 0 1042 1855 1998 2043 1877 1849 1853 1542 1674 1763 1755 1856 1589 1951 1671 1400 1364 1945 1292 1172 1085 926 1251 1180 1296
0 0 0 0 0 0 0 0 0 0 0 0 0 0 0 0 0 0 0 0 0 0 0 0 278 2061 2088 2069 1987 1780 1827 1690 1612 1425 1330 1421 1352 1440 1566 1258 1220 1331 1399 1095 933 882 709 1185 1241
0 0 0 0 0 0 0 0 0 0 0 0 0 0 0 0 0 0 0 0 0 0 0 0 40 1850 2403 1991 1759 1758 1767 1900 1609 1640 1552 1603 1225 1115 1198 1455 1287 1068 1113 1157 1062 908 697 831 944
0 0 0 0 0 0 0 0 0 0 15 19 0 1 5 2 0 0 0 3 1 0 0 0 119 982 2452 2242 1791 1703 1785 1648 1705 1720 1661 1675 1751 1513 1156 1377 1115 825 1462 1035 1037 1033 559 791 678
0 0 0 0 0 0 0 0 0 0 27 0 7 9 13 12 11 10 7 2 2 1 0 0 10 1474 2312 2510 2355 1846 1750 1808 1854 1917 1819 1751 1703 1789 1551 1752 1876 1503 1408 1110 967 854 691 570 452
0 0 0 0 0 0 0 0 1 0 5 2 8 14 15 15 14 13 11 9 9 7 5 7 10 5 1333 1896 2297 2464 2358 2436 2515 2472 2277 1996 1737 1686 1791 1755 1796 1669 1135 1367 893 616 822 729 334
0 0 0 0 0 0 0 2 44 0 0 9 18 9 13 21 21 17 14 12 6 6 3 2 1 3 9 998 529 1813 2485 2623 2740 2465 2290 2021 1679 1707 1721 1817 2048 1857 1182 1269 1053 672 831 1183 1383
0 0 0 0 3 0 0 18 11 20 38 26 22 19 21 11 20 16 13 10 7 15 7 2 2 3 4 2 0 40 1364 2669 2475 2671 2413 1906 1600 1496 1578 2172 1970 1646 1288 1140 1250 876 1077 1319 1548
0 1 1 2 55 23 0 5 13 19 34 42 39 38 31 18 11 19 12 15 14 21 19 16 4 2 2 2 1 1 1 63 328 546 1186 1939 1622 1605 1489 1443 1300 1154 1206 1044 1222 1459 1033 1268 1383
0 0 2 1 1 16 0 36 18 38 24 28 26 34 23 21 14 13 18 15 14 21 34 13 5 8 3 2 2 2 3 3 2 1 2 0 459 1610 1341 1262 1087 1004 878 1293 1631 1848 1582 1600 1791
11 8 2 5 4 19 51 25 31 0 5 22 14 14 19 17 8 22 17 11 12 25 17 19 10 4 5 6 4 2 2 5 8 8 11 8 3 109 1352 1211 913 552 625 834 1313 1125 896 965 1517
5 16 34 38 16 14 93 6 12 12 14 20 9 15 17 14 11 8 10 17 12 17 30 17 13 9 5 5 9 5 5 5 6 6 7 3 3 1 88 1141 915 664 560 490 567 632 770 764 716
51 41 29 30 41 48 73 17 33 16 20 14 12 11 13 16 15 7 11 6 10 8 11 21 15 12 9 9 11 8 5 9 5 4 5 4 3 3 1 791 900 910 595 563 753 547 572 393 459
26 33 27 37 55 52 78 19 30 24 22 19 16 15 16 15 16 11 9 7 8 8 11 14 15 14 12 4 5 9 7 4 5 7 6 5 5 3 1 2 564 431 497 770 563 419 205 119 68

GFSSGP_con_sbcape_129.txt.gz
CAPE
0 0 0 0 0 0 0 0 0 0 0 0 0 0 0 0 0 0 122 1484 1466 1061 2221 1724 1363 1624 1733 1904 1997 2019 2099 2096 2071 2044 2012 2033 2040 2093 2241 2225 2208 2320 2332 1757 1696 1651 1553 1759 2009
0 0 0 0 0 0 0 0 0 0 0 0 0 0 0 0 0 0 39 909 1273 1263 2246 1939 1320 1545 1702 1816 2026 2189 2422 2293 2116 2095 2126 2142 2160 2228 2278 2181 2109 2343 2418 1938 1705 1613 1653 1674 1736
0 0 0 0 0 0 0 0 0 0 0 0 0 0 0 0 0 9 192 896 1216 1515 2166 1938 1335 1463 1620 1745 1952 2184 2327 2174 2076 2082 2267 2307 2343 2364 2318 2067 2047 2327 2444 2037 1835 1838 1666 1560 1490
0 0 0 0 0 0 0 0 0 0 0 0 0 0 0 0 0 0 374 1718 1588 1733 1995 1210 1332 1396 1599 1759 1980 2123 2085 2008 1966 2042 2302 2442 2492 2451 2250 1952 2080 2402 2462 2374 2154 1942 1546 1262 1290
0 0 0 0 0 0 0 0 0 0 0 0 0 0 0 0 0 16 470 1923 1808 1906 2153 2221 1365 1407 1618 1828 2003 1997 1923 1898 1967 2121 2277 2410 2484 2414 2074 1898 2083 2339 2433 2417 2297 1706 1313 1161 1189
0 0 0 0 0 0 0 0 0 0 0 0 0 0 0 0 0 48 735 1698 1853 2063 2370 2779 1431 1468 1570 1717 1743 1762 1740 1789 1937 2119 2232 2388 2375 2165 1968 1892 1974 2157 1990 1859 1825 1347 1189 1095 1119
0 0 0 0 0 0 0 0 0 0 0 0 0 0 0 0 0 0 757 1719 2668 2399 2706 3378 2154 1771 1461 1537 1499 1487 1564 1658 1838 2010 2123 2233 2129 1924 1849 1855 1903 1990 1625 1567 1497 1135 999 1013 996
0 0 0 0 0 0 0 0 0 0 0 0 0 0 0 0 0 0 0 1128 2365 2907 2924 3427 2564 2139 1909 1763 1273 1196 1307 1449 1688 1861 1977 1989 1867 1763 1730 1712 1723 1833 1616 1532 1241 938 892 879 750
0 0 0 0 0 0 0 0 0 0 0 0 0 0 0 0 0 0 0 0 883 2561 2933 3417 2939 2550 2298 2170 1716 1060 1125 1254 1423 1662 1712 1780 1974 2083 2004 1664 1650 1732 1546 1271 1006 817 785 629 376
0 0 0 0 0 0 0 0 0 0 0 0 0 0 0 0 0 0 0 0 0 383 2710 2960 3134 2853 2729 2336 2420 1892 1713 1594 1680 1789 2113 2040 1857 2051 1779 1487 1529 1593 1453 1045 817 726 610 526 1010
0 0 0 0 0 0 0 0 0 0 0 0 0 0 0 0 0 0 0 0 0 0 1222 2893 3091 3088 2999 2689 2515 2411 2174 1933 2004 2125 2340 2130 2171 2634 2216 2188 2032 2073 1341 1656 941 956 1128 1016 1231
0 0 0 0 0 0 0 0 0 0 0 0 0 0 0 0 0 0 0 0 0 0 0 2370 2726 3027 3504 2680 2324 2321 2522 2614 2376 2172 2942 2798 2471 2969 2513 2064 2362 2272 1838 1668 1350 1247 1174 1166 1282
0 0 0 0 0 0 0 0 0 0 0 0 0 0 0 0 0 0 0 0 0 0 0 0 2727 2992 3322 3473 2446 2554 2694 2330 2521 2577 2834 2764 2264 3002 2521 2587 2161 2048 1903 1792 1823 1477 1360 1499 1300
0 0 0 0 0 0 0 0 0 0 0 0 0 0 0 0 0 0 0 0 0 0 0 0 1136 2920 2893 3072 3441 2964 2839 2396 2481 2397 2378 3218 2760 3149 2522 2462 2478 2324 2201 2153 2035 1678 1480 1620 1350
0 0 0 0 0 0 0 0 0 0 0 0 0 0 0 0 0 0 0 0 0 0 0 0 910 2538 2920 3165 2983 2734 2216 2510 2596 2408 2537 2614 2851 3101 2687 2676 2520 2200 2468 2455 2193 1805 1902 1548 1412
0 0 0 0 0 0 0 0 0 0 0 0 0 0 0 0 0 0 0 0 0 0 0 0 0 2247 3218 2865 2696 2472 2285 2479 2125 2159 2293 1995 2538 2818 2823 2311 2549 2589 2414 2391 2361 2002 1886 1783 1422
0 0 0 0 0 0 0 0 0 0 0 0 0 0 0 0 0 0 0 0 0 0 0 0 0 3 3015 2938 2775 2812 2800 2541 2244 2158 2128 2321 2192 2567 2492 1950 2192 2959 2221 2453 2228 2012 1904 1490 1440
0 0 0 0 0 0 0 0 0 0 0 0 0 0 1 0 2 0 0 0 0 0 0 0 0 0 2328 2980 2807 2587 2636 2506 2383 2045 1928 2530 2221 2174 2787 2111 2033 2105 2320 2089 1930 1705 1625 1627 1275
0 0 0 0 0 0 0 0 0 0 0 0 0 0 0 0 0 0 0 0 0 1 0 0 0 0 66 2556 2522 2702 2406 2439 2417 2190 1943 2261 2237 2179 2149 2100 1813 1660 1796 1812 1678 1418 1574 1510 1477
0 0 0 0 0 0 0 0 0 1 11 0 0 0 0 0 4 4 4 2 10 13 19 1 0 0 0 1716 2591 2493 2586 2389 2371 2079 2021 1938 2173 2448 1839 1784 1981 1477 1324 1697 1445 1238 1318 1530 1444
0 0 0 0 0 0 0 0 0 0 17 0 0 0 0 2 7 18 12 11 8 12 3 3 4 0 0 119 2061 2268 2775 2476 2346 2064 1990 2234 2363 2172 1701 1563 2141 1602 1498 1842 1359 1300 1148 1153 1044
0 0 0 0 0 0 0 0 15 0 0 0 0 0 7 10 8 10 19 9 10 16 9 5 9 11 4 21 133 2125 1935 2182 2040 1868 1909 1910 2355 2240 1974 1706 2021 2077 1919 1961 1898 1129 1056 982 813
0 0 0 0 0 0 0 7 37 0 0 0 7 9 11 16 20 6 17 10 18 17 15 4 9 7 5 0 8 1832 1659 2234 1908 1848 1864 2341 2533 2421 2377 2139 2186 2527 2521 2235 2376 1274 1006 1067 1228
0 0 0 0 0 2 15 18 31 6 14 14 9 9 16 22 23 17 11 14 9 15 12 10 5 4 8 0 4 223 1946 1342 909 909 1715 2322 2104 2077 2143 2235 2240 2534 2691 2175 1993 2026 871 1257 1260
0 5 17 7 61 46 23 14 2 7 9 10 16 16 13 18 21 31 15 13 11 11 10 21 11 6 6 1 3 7 4 66 34 0 51 1494 1986 1923 1984 2017 1985 2120 2405 2179 1829 1934 1520 1261 1586
1 6 14 0 15 36 26 94 11 4 5 10 15 11 11 15 20 28 21 14 13 10 20 14 26 21 5 5 4 9 6 9 10 2 3 7 158 573 1926 2283 1872 1505 1095 1110 1246 1691 1584 1499 1606
9 6 14 3 1 35 67 3 5 5 8 22 8 5 15 19 23 24 26 11 8 11 13 19 44 36 15 8 6 7 10 8 5 5 4 4 2 0 5 686 1570 1477 1066 878 904 1126 1735 1647 1570
3 12 27 21 17 74 148 8 12 7 7 5 23 18 8 15 14 19 24 10 9 6 10 17 22 29 25 23 19 15 8 9 8 9 7 8 9 5 4 6 852 1300 1188 960 685 800 1166 1354 1428
32 21 19 40 50 101 181 27 15 15 14 14 18 24 18 14 14 13 19 8 3 0 6 9 13 13 20 15 13 12 9 11 7 9 6 8 7 7 2 3 1 412 989 982 747 649 728 651 895
13 16 30 71 85 141 239 22 16 19 6 7 5 14 16 21 17 12 17 16 7 2 3 5 28 21 9 10 8 7 10 11 7 6 7 7 7 6 3 1 1 0 0 1 1 30 591 612 709

GFSSGP_con_sbcape_132.txt.gz
CAPE
0 0 0 0 0 0 0 0 0 0 0 0 0 0 0 0 0 19 368 643 1699 2413 1676 1315 1536 1783 2002 2130 2033 1934 1990 2000 1976 1991 1962 2006 2035 2155 2274 2183 2222 2392 2341 1890 1854 1927 1644 2124 1824
0 0 0 0 0 0 0 0 0 0 0 0 0 0 0 0 0 0 66 808 1140 1996 1996 1445 1482 1693 1935 2035 2060 2031 2189 2168 2071 2066 2083 2098 2116 2219 2300 2155 2092 2305 2348 2006 1731 1657 1700 1962 1590
0 0 0 0 0 0 0 0 0 0 0 0 0 0 0 0 0 0 156 1278 1477 1510 2338 1997 1485 1599 1851 1965 2051 2130 2192 2078 2058 2074 2215 2227 2260 2343 2334 2043 2033 2341 2406 2173 1804 1847 1718 1541 1407
0 0 0 0 0 0 0 0 0 0 0 0 0 0 0 0 0 1 320 1511 1809 1867 2467 1061 1396 1506 1771 2010 2138 2226 2095 1923 1919 2053 2279 2331 2379 2423 2267 1941 2074 2400 2446 2337 2274 1887 1465 1257 1231
0 0 0 0 0 0 0 0 0 0 0 0 0 0 0 0 0 0 805 1518 2151 2670 2141 1595 1348 1456 1725 2064 2216 2188 2038 1938 1937 2112 2251 2372 2459 2427 2057 1890 2077 2312 2443 2373 2288 1663 1226 1122 1167
0 0 0 0 0 0 1 0 0 0 0 0 0 0 0 0 0 0 1202 1736 2763 3286 3050 1722 1364 1423 1618 1920 2017 2015 1962 1945 1956 2100 2224 2382 2376 2215 1947 1895 2047 2202 2239 2118 1820 1301 1103 1048 1103
0 0 0 0 0 0 0 0 0 0 0 0 0 0 0 0 0 0 65 2487 3034 3366 3594 2678 1930 1576 1438 1605 1740 1821 1843 1900 1969 2077 2205 2286 2187 1987 1850 1881 1976 2082 1772 1714 1472 1105 950 953 975
0 0 0 0 0 0 0 0 0 0 0 0 0 0 0 0 0 0 0 0 3207 3279 3370 3148 2415 1993 1824 1706 1386 1538 1655 1735 1849 1951 2040 2067 1999 1830 1761 1753 1824 1905 1569 1508 1320 954 847 839 770
0 0 0 0 0 0 0 0 0 0 0 0 0 0 0 0 0 0 0 0 15 3126 3504 2844 2396 2356 2189 1911 1550 1127 1345 1488 1638 1789 1835 1581 2045 1852 1733 1742 1609 1720 1493 1366 1026 808 766 638 529
0 0 0 0 0 0 0 0 0 0 0 0 0 0 0 0 0 0 0 0 0 0 1976 3325 2873 2503 2424 1957 1946 1631 1557 1616 1842 2016 1923 2120 1991 1967 1768 1602 1383 1641 1447 1098 813 701 636 428 635
0 0 0 0 0 0 0 0 0 0 0 0 0 0 0 0 0 0 0 0 0 0 0 3132 3298 2854 2475 2351 2388 1724 1691 1499 1619 1854 2110 2136 1923 1970 1396 1607 1474 1590 1215 1094 637 516 688 803 886
0 0 0 0 0 0 0 0 0 0 0 0 0 0 0 0 0 0 0 0 0 0 0 0 3452 2946 2883 2486 2678 2447 1972 1843 1785 1869 2239 1996 2156 2251 1793 2036 1908 1988 1571 1713 979 900 873 1040 994
0 0 0 0 0 0 0 0 0 0 0 0 0 0 0 0 0 0 0 0 0 0 0 0 322 3034 2790 2831 2894 2640 2265 2241 2097 2065 2140 2299 2038 2190 2170 2004 2080 1819 1774 1456 1333 1168 1033 1099 1149
0 0 0 0 0 0 0 0 0 0 0 0 0 0 0 0 0 0 0 0 0 0 0 0 0 610 2737 2391 2784 2630 2620 2529 2261 2231 2271 2409 2127 2146 2333 2262 2048 1864 1712 1572 1546 1350 1171 1192 938
0 0 0 0 0 0 0 0 0 0 0 0 0 0 0 0 0 0 0 0 0 0 0 0 0 0 2861 2592 2253 2364 2372 1909 2392 2350 2663 2387 2350 2363 2347 2279 2169 2047 1794 1803 1692 1717 1249 1190 1213
0 0 0 0 0 0 0 0 0 0 0 0 0 0 0 0 0 0 0 0 0 0 0 0 0 0 0 2712 2288 2086 2198 2090 2245 2220 2199 2455 2471 2412 2465 2300 2046 2170 2148 1939 1632 1390 1233 1181 1170
0 0 0 0 0 0 0 0 0 0 0 0 0 0 0 0 0 0 0 0 0 0 0 0 0 0 0 0 1383 2081 2058 2257 1960 2363 2115 2165 2118 2445 2537 2085 2265 2085 2176 2131 1956 1698 1447 1365 1252
0 0 0 0 0 0 0 0 0 0 0 0 0 0 0 0 0 0 0 0 0 0 0 0 0 0 0 0 0 1565 2023 2128 2174 1868 1972 2207 1959 1778 2180 2212 2207 2470 2059 2049 2079 1985 1922 1507 1196
0 0 0 0 0 0 0 0 0 0 0 0 0 0 0 0 0 0 0 0 0 0 0 0 0 0 0 0 0 100 1508 1588 1608 1613 1864 2066 1895 1684 1807 2305 1871 1646 2140 2014 1994 1936 1538 1374 1302
0 0 0 0 0 0 0 0 0 0 0 0 0 0 0 0 0 0 0 0 1 5 7 0 0 0 0 0 0 3 198 1347 1539 1696 1591 1704 2157 1734 1682 2184 1739 1468 1334 1683 1469 1421 1253 1102 1296
0 0 0 0 0 0 0 0 0 0 0 0 0 0 0 0 0 1 3 3 2 5 12 12 0 3 1 0 1 9 9 563 1335 1567 1471 1609 1897 2033 1707 1695 1754 1278 1138 1029 1264 1222 1086 965 938
0 0 0 0 0 0 0 0 0 0 0 0 0 0 0 0 0 3 3 1 5 5 5 5 6 5 3 1 14 15 15 16 1039 1396 1468 1350 1421 1844 1731 1397 1311 1538 983 807 977 1220 1044 867 702
0 0 0 0 0 0 0 0 0 0 0 0 0 0 1 1 2 8 10 9 1 7 4 6 3 9 7 6 9 26 9 18 748 1221 1294 1343 1228 1393 1754 1268 1214 1676 1104 901 1392 1293 1109 1012 706
0 0 0 0 0 0 0 0 0 1 3 5 1 3 4 3 8 2 13 11 10 11 5 3 6 13 0 0 10 9 1 8 661 324 938 1136 1414 1562 1695 1383 1317 1376 1670 1400 1131 1353 1169 883 775
0 0 1 6 18 0 0 0 0 1 1 3 5 2 4 3 12 11 15 18 17 8 5 8 5 16 4 1 8 5 0 2 6 3 1 6 4 206 379 1446 1618 1579 1814 2009 1822 1495 1169 996 737
0 0 0 0 0 0 0 4 5 3 0 4 6 5 4 3 14 16 20 18 19 13 7 5 5 14 9 2 7 6 2 5 4 4 4 0 7 3 0 6 944 1424 1689 1845 1813 1479 1367 1034 752
0 0 3 4 0 0 0 0 1 0 1 5 2 4 1 6 11 13 16 13 12 11 7 5 4 1 20 22 16 10 5 4 6 10 16 15 1 5 4 7 2 52 1339 1436 1214 1082 1278 1188 1146
0 1 1 14 3 5 19 15 6 1 5 9 9 7 3 14 12 13 13 12 10 3 5 2 2 0 15 19 15 23 9 6 8 4 5 9 6 5 3 7 4 5 1 133 801 947 972 1090 1155
2 0 6 9 39 27 43 2 2 6 7 7 7 8 5 14 13 11 9 10 2 0 1 1 0 0 1 31 45 19 8 7 9 11 6 8 3 3 3 3 3 3 3 0 1 0 106 585 923
14 25 35 31 13 83 128 2 8 11 5 2 3 1 1 4 13 10 9 8 5 3 0 0 0 3 0 16 21 19 6 6 14 11 6 6 3 2 4 2 3 2 2 3 1 1 1 3 5

GFSSGP_con_sbcape_135.txt.gz
CAPE
0 0 0 0 0 0 0 0 0 0 0 0 0 0 0 0 0 237 13 879 1798 1376 1393 1502 1637 1918 2046 2060 1894 1818 1915 1985 1985 1898 1864 1897 1992 2095 2111 2134 2209 2323 2259 1798 1790 1908 1974 2041 1466
0 0 0 0 0 0 0 0 0 0 0 0 0 0 0 0 0 0 213 1062 1802 1452 1257 1506 1600 1845 1996 1982 1929 1944 2138 2098 2031 2009 1996 2013 2105 2189 2146 2048 2005 2220 2272 2012 1753 1686 1865 1812 1348
0 0 0 0 0 0 0 0 0 0 0 0 0 0 0 0 0 1 482 1618 1367 1549 1326 1607 1552 1776 1920 1968 1924 1942 2029 1937 1943 2000 2146 2148 2226 2303 2191 1900 1941 2235 2346 2208 1803 1825 1663 1341 1185
0 0 0 0 0 0 0 0 0 0 0 0 0 0 0 0 0 426 739 1844 2032 1894 1812 1388 1557 1730 1933 2014 2029 2012 1886 1767 1786 1944 2222 2304 2348 2399 2123 1821 2003 2317 2381 2342 2229 1703 1315 1072 1023
0 0 0 0 0 0 0 0 0 0 0 0 0 0 0 0 0 749 1060 2152 2148 1650 1448 1337 1467 1644 1912 2135 2172 2081 1842 1725 1788 1976 2124 2252 2357 2331 1959 1802 2001 2218 2279 2300 2033 1336 1051 993 969
0 0 0 0 0 0 0 0 0 0 0 0 0 0 0 0 0 218 1436 1947 2522 1993 1416 1436 1408 1583 1807 2054 2120 2064 1905 1795 1828 1976 2059 2201 2221 2102 1847 1776 1956 2130 2120 1948 1504 1084 940 904 945
0 0 0 0 0 0 0 0 0 0 0 0 0 0 0 0 0 0 107 2018 2548 2519 1697 1451 1388 1496 1625 1841 1941 1955 1892 1846 1837 1946 2038 2160 2078 1921 1744 1788 1950 2056 1971 1723 1226 930 808 834 881
0 0 0 0 0 0 0 0 0 0 0 0 0 0 0 0 0 0 0 0 2398 2642 2388 1723 1392 1303 1207 1224 1653 1713 1771 1805 1792 1840 1936 1980 1908 1779 1683 1725 1870 1880 1602 1502 1144 817 714 748 723
0 0 0 0 0 0 0 0 0 0 0 0 0 0 0 0 0 0 0 0 0 1424 2763 2138 1766 1437 1307 1251 1121 1357 1546 1603 1693 1738 1784 1482 1594 1556 1585 1544 1668 1736 1406 1328 1059 732 661 620 551
0 0 0 0 0 0 0 0 0 0 0 0 0 0 0 0 0 0 0 0 0 0 0 2230 1992 1698 1507 1600 1352 963 1164 1243 1330 1533 1459 1464 1528 1437 1621 1494 1432 1576 1341 1195 861 641 567 481 321
0 0 0 0 0 0 0 0 0 0 0 0 0 0 0 0 0 0 0 0 0 0 0 753 2311 2097 1851 1685 1258 997 989 1025 1261 1468 1404 1534 1565 1507 1386 1211 1134 1222 1203 850 604 512 435 427 337
0 0 0 0 0 0 0 0 0 0 0 0 0 0 0 0 0 0 0 0 0 0 0 0 36 1939 1926 1694 1618 1141 996 932 1075 1312 1472 1548 1380 1271 1143 1105 1092 1231 1141 774 488 391 402 469 404
0 0 0 0 0 0 0 0 0 0 0 0 0 0 0 0 0 0 0 0 0 0 0 0 0 0 764 1614 1540 1495 1150 1135 1076 1175 1471 1513 1517 1283 1171 1329 1294 1443 1170 1174 548 475 416 491 524
0 0 0 0 0 0 0 0 0 0 0 0 0 0 0 0 0 0 0 0 0 0 0 0 0 0 0 0 1390 1817 1561 1415 1214 1265 1454 1727 1405 1409 1489 1306 1534 1558 1318 1066 822 627 483 488 569
0 0 0 0 0 0 0 0 0 0 0 0 0 0 0 0 0 0 0 0 0 0 0 0 0 0 0 0 0 41 1764 1584 1494 1591 1538 1797 1624 1341 1663 1454 1436 1464 1190 1039 864 674 613 575 572
0 0 0 0 0 0 0 0 0 0 0 0 0 0 0 0 0 0 0 0 0 0 0 0 0 0 0 0 0 0 0 1101 1478 1629 1770 1735 1870 1453 1490 1553 1581 1396 1265 1158 1099 894 665 665 712
0 0 0 0 0 0 0 0 0 0 0 0 0 0 0 0 0 0 0 0 0 0 0 0 0 0 0 0 0 0 0 2 1381 1403 1678 1855 1826 1672 1579 1765 1624 1491 1562 1317 1227 942 767 653 658
0 0 0 0 0 0 0 0 0 0 0 0 0 0 0 0 0 0 0 0 0 0 0 0 0 0 0 0 0 0 0 0 236 1198 1382 1384 2002 1883 1798 1512 1571 1572 1600 1516 1208 1143 826 767 707
0 0 0 0 0 0 0 0 0 0 0 0 0 0 0 0 0 0 0 0 0 0 0 0 0 0 0 0 0 0 0 0 0 74 1021 1347 1523 1861 1829 1615 1250 1560 1431 1467 1356 1040 1107 936 571
0 0 0 0 0 0 0 0 0 0 0 0 0 0 0 0 0 0 0 0 0 0 0 0 0 0 0 0 0 0 0 1 0 0 7 1253 1555 1507 1578 1647 1316 1435 1495 1101 1177 1328 858 756 547
0 0 0 0 0 0 0 0 0 0 0 0 0 0 0 0 0 0 0 0 0 0 1 2 1 3 0 0 2 2 6 0 0 0 53 888 1309 1300 1064 1134 1596 1196 1112 1132 1355 1415 1283 1012 541
0 0 0 0 0 0 0 0 0 0 0 0 0 0 0 0 0 0 0 0 0 0 1 1 2 2 0 2 1 7 7 8 2 2 0 6 938 1288 1193 1014 1477 1443 922 914 874 1043 945 708 533
0 0 0 0 0 0 0 0 0 0 0 0 0 0 0 0 0 0 0 0 1 0 0 0 2 3 0 5 4 6 7 27 5 12 6 12 373 1216 1164 965 1174 1028 955 712 759 756 826 624 578
0 0 0 0 0 0 0 0 0 0 0 0 0 0 0 0 2 0 2 2 5 5 1 0 6 4 2 2 8 5 11 11 15 10 26 41 206 788 1187 966 1042 844 831 684 618 699 765 615 523
0 0 0 0 0 0 0 0 0 0 0 0 0 1 2 2 4 5 4 2 5 6 10 1 7 6 3 2 6 6 7 5 20 17 5 2 4 0 0 20 94 218 749 646 708 774 1039 807 654
0 0 0 0 0 0 0 0 3 0 0 0 0 0 0 3 6 7 7 3 3 9 11 8 6 6 3 3 5 8 5 7 11 1 2 7 17 2 2 0 0 0 0 613 764 721 1033 917 725
0 0 0 1 0 0 0 1 4 0 0 1 1 1 5 5 5 4 1 1 5 7 5 4 3 4 4 5 11 14 12 11 18 4 3 4 3 8 2 2 2 1 0 1 4 547 508 690 644
0 0 0 2 0 0 0 0 0 0 0 0 1 1 4 4 0 0 1 1 2 3 3 4 1 0 1 3 10 11 21 23 24 8 1 7 5 3 3 2 2 2 1 1 6 5 6 4 150
0 0 0 0 2 2 0 0 0 0 2 0 2 4 2 3 0 0 0 0 0 0 2 3 0 0 0 0 4 7 21 30 18 9 4 4 3 4 4 4 3 4 4 6 7 4 3 2 3
5 3 1 0 0 1 8 0 0 0 0 0 1 2 5 7 2 0 0 0 0 0 2 3 0 0 0 0 1 3 21 8 10 6 7 5 6 4 4 3 3 3 2 5 8 7 5 5 4

GFSSGP_con_sbcape_138.txt.gz
CAPE
0 0 0 0 0 0 0 0 0 0 0 0 0 0 0 0 229 151 134 1357 1427 1216 1407 1576 1776 1891 1968 1847 1741 1790 1869 1921 1882 1801 1753 1826 1963 1943 1974 2078 2177 2305 2175 1757 1805 1803 1952 1485 1606
0 0 0 0 0 0 0 0 0 0 0 0 0 0 0 0 1 255 841 993 1477 1271 1389 1550 1755 1906 1952 1891 1832 1914 2066 2012 1892 1890 1910 1966 2075 2075 2104 2048 2015 2178 2348 1986 1841 1904 1966 1573 1342
0 0 0 0 0 0 0 0 0 0 0 0 0 0 0 0 2 339 456 1651 1686 1232 1367 1569 1703 1886 1916 1866 1842 1922 2006 1860 1826 1877 2070 2123 2212 2200 2135 1871 1929 2164 2368 2154 1966 1846 1769 1313 1108
0 0 0 0 0 0 0 0 0 0 0 0 0 0 0 0 267 547 1637 1896 1483 1366 1511 1421 1599 1807 1901 1928 1932 1976 1852 1693 1679 1820 2096 2228 2326 2295 2026 1769 1974 2272 2419 2460 2127 1707 1416 1046 969
0 0 0 0 0 0 0 0 0 0 0 0 0 0 0 0 367 759 1761 1988 1818 1598 1410 1380 1525 1718 1884 2039 2077 1975 1787 1632 1649 1842 2014 2163 2307 2231 1871 1726 1961 2127 2291 2507 2002 1439 1149 956 889
0 0 0 0 0 0 0 0 0 0 0 0 0 0 0 0 0 62 815 2165 1894 1705 1393 1347 1409 1609 1875 2059 2088 1968 1748 1652 1668 1814 1912 2099 2118 1966 1788 1715 1920 2019 2068 2022 1467 1095 1008 923 864
0 0 0 0 0 0 0 0 0 0 0 0 0 0 0 0 0 0 0 727 2164 1599 1417 1347 1411 1472 1683 1953 2033 2038 1852 1681 1677 1795 1861 1951 1893 1767 1699 1703 1864 1972 1925 1726 1228 936 835 875 848
0 0 0 0 0 0 0 0 0 0 0 0 0 0 0 0 0 0 0 0 12 1845 2062 1325 1034 1236 1301 1348 1823 1921 1913 1757 1661 1721 1798 1845 1718 1599 1573 1601 1792 1905 1811 1612 1156 865 733 771 749
0 0 0 0 0 0 0 0 0 0 0 0 0 0 0 0 0 0 0 0 0 0 0 2012 1554 1164 900 937 1185 1600 1646 1696 1640 1608 1673 1528 1534 1445 1394 1440 1644 1711 1608 1426 1106 799 683 673 600
0 0 0 0 0 0 0 0 0 0 0 0 0 0 0 0 0 0 0 0 0 0 0 0 0 434 1235 1225 1085 1057 1218 1341 1355 1488 1489 1514 1383 1317 1469 1365 1416 1534 1300 1207 1013 725 614 567 356
0 0 0 0 0 0 0 0 0 0 0 0 0 0 0 0 0 0 0 0 0 0 0 0 0 0 0 150 1155 730 776 1084 1197 1375 1539 1226 1338 1226 1268 1113 1083 1141 1081 927 753 523 379 336 219
0 0 0 0 0 0 0 0 0 0 0 0 0 0 0 0 0 0 0 0 0 0 0 0 0 0 0 0 0 226 789 733 1147 1378 1383 1210 1321 1143 1155 1066 886 1020 1023 706 431 271 266 284 239
0 0 0 0 0 0 0 0 0 0 0 0 0 0 0 0 0 0 0 0 0 0 0 0 0 0 0 0 0 0 0 705 671 1170 1427 1504 1470 1230 1117 955 845 1066 1008 632 317 215 221 238 213
0 0 0 0 0 0 0 0 0 0 0 0 0 0 0 0 0 0 0 0 0 0 0 0 0 0 0 0 0 0 0 0 582 712 1146 1566 1517 1322 1181 978 933 1038 1011 892 465 306 175 160 175
0 0 0 0 0 0 0 0 0 0 0 0 0 0 0 0 0 0 0 0 0 0 0 0 0 0 0 0 0 0 0 0 0 596 845 1325 1438 1351 1188 1040 1058 1102 1050 987 653 322 238 155 128
0 0 0 0 0 0 0 0 0 0 0 0 0 0 0 0 0 0 0 0 0 0 0 0 0 0 0 0 0 0 0 0 0 0 841 1076 1445 1154 1153 1185 1261 1198 1066 969 794 564 455 407 213
0 0 0 0 0 0 0 0 0 0 0 0 0 0 0 0 0 0 0 0 0 0 0 0 0 0 0 0 0 0 0 0 0 0 0 255 1239 1286 1134 1348 1330 1211 1081 1041 859 713 650 471 356
0 0 0 0 0 0 0 0 0 0 0 0 0 0 0 0 0 0 0 0 0 0 0 0 0 0 0 0 0 0 0 0 0 0 0 0 35 1077 967 1304 1377 1157 1216 1120 947 836 421 423 394
0 0 0 0 0 0 0 0 0 0 0 0 0 0 0 0 0 0 0 0 0 0 0 0 0 0 0 0 0 1 1 0 0 0 0 0 0 10 914 1102 1379 1259 1319 1228 946 786 406 300 134
0 0 0 0 0 0 0 0 0 0 0 0 0 0 0 0 0 0 0 0 0 0 0 0 0 0 0 0 0 2 0 1 6 0 0 0 0 1 448 702 1197 1270 1359 1136 930 818 704 612 194
0 0 0 0 0 0 0 0 0 0 0 0 0 0 0 0 0 0 0 0 0 0 0 1 0 1 1 2 0 1 3 0 1 0 0 0 0 0 103 455 1094 1161 1238 949 978 955 857 865 229
0 0 0 0 0 0 0 0 0 0 0 0 0 0 0 0 0 0 0 0 0 0 0 0 1 0 1 1 4 7 10 4 0 2 0 0 0 0 0 100 646 961 1097 983 945 939 918 971 771
0 0 0 0 0 0 0 0 0 0 0 0 0 0 0 0 0 0 0 0 0 0 1 2 3 6 0 6 4 5 11 14 19 22 1 0 0 0 0 62 341 694 968 1191 980 969 887 731 781
0 0 0 0 0 0 0 0 0 0 0 0 0 0 0 0 0 0 0 0 0 0 2 3 7 9 4 2 3 10 9 13 13 1 0 1 0 12 0 0 0 295 385 861 748 865 973 683 479
0 0 0 0 0 0 0 0 0 0 0 0 0 0 0 1 2 0 0 0 0 0 4 7 3 7 3 6 5 9 15 10 11 10 3 21 8 1 1 1 0 0 0 257 557 486 472 318 507
0 0 0 0 0 0 0 0 0 0 0 0 0 0 2 0 0 0 0 0 2 4 2 0 9 10 5 8 5 13 9 16 11 10 8 5 6 5 1 3 4 1 2 0 2 322 285 412 375
0 0 0 0 0 0 0 1 2 0 0 0 0 0 3 0 0 0 0 0 3 6 0 7 6 7 5 9 7 7 9 7 13 8 8 8 4 5 2 2 8 2 5 0 1 3 2 16 332
0 0 7 0 0 0 0 0 0 3 0 0 0 0 1 0 0 0 0 0 0 1 8 6 3 1 4 3 5 10 7 5 7 9 10 11 7 8 2 2 1 2 2 2 2 3 2 1 2
0 0 0 0 0 0 0 0 0 0 0 0 0 1 2 2 0 0 0 0 3 0 2 3 2 0 1 2 2 4 2 4 4 11 12 16 21 5 2 3 3 3 2 4 4 5 3 3 1
0 0 0 2 0 0 0 0 0 0 0 0 0 2 1 0 0 0 0 0 0 0 0 2 2 3 0 0 0 0 0 0 1 2 5 14 15 3 3 2 2 4 4 3 4 6 6 4 7